Location: Aldenham
(51.6667°N, 0.3500°W)
Time: 07:10:40
(UTC+00:00)

Cosmos 1536 Rocket - Pass Details

Date: 18 November 2025
Orbit: 599 x 625 km, 82.5° (Epoch: 10 December)

Event Time Altitude Azimuth Distance (km) Brightness Sun altitude
Rises 17:04:36 0° 357° (N) 2,921 6.8 -8.8°
Reaches altitude 10° 17:07:09 10° 10° (N) 2,007 5.9 -9.2°
Maximum altitude 17:10:55 26° 68° (ENE) 1,225 4.5 -9.8°
Drops below altitude 10° 17:14:38 10° 126° (SE) 1,982 5.8 -10.3°
Sets 17:17:08 0° 139° (SE) 2,878 6.7 -10.7°
